Weather History for Alexandria Esle, LA

Change the Weather History Date:

Monday, August 18, 2014

  Actual Average Record
Temperature  
Mean Temperature 84 °F -  
Max Temperature 95 °F 92 °F 108 °F (2011)
Min Temperature 73 °F 70 °F 57 °F (2004)
Cooling Degree Days 19    
Growing Degree Days 34 (Base 50)    
Moisture  
Dew Point 74 °F    
Average Humidity 80    
Maximum Humidity 94    
Minimum Humidity 50    
Precipitation  
Precipitation 0.00 in - - ()
Sea Level Pressure  
Sea Level Pressure 29.97 in    
Wind  
Wind Speed 3 mph (SW)    
Max Wind Speed 13 mph    
Max Gust Speed -    
Visibility 7 miles    
Events Fog    
Averages and records for this station are not official NWS values.
T = Trace of Precipitation, MM = Missing Value Source: NWS Daily Summary

Daily Weather History Graph

Daily Weather History Graph

Search for Another Location

Airport:

Trip Planner

Search our weather history database for the weather conditions in past years. The results will help you decide how hot, cold, wet, or windy it might be!

Date:

Astronomy

Aug. 18, 2014 Rise Set
Actual Time 6:36 AM CDT 7:48 PM CDT
Civil Twilight 6:11 AM CDT 8:14 PM CDT
Nautical Twilight 5:40 AM CDT 8:44 PM CDT
Astronomical Twilight 5:09 AM CDT 9:15 PM CDT
Moon 12:48 AM CDT (8/18) 2:46 PM CDT (8/18)
Length of Visible Light 14h 03m
Length of Day
13h 12m
Last Quarter, 38% of the Moon is Illuminated
Aug 18
Last Quarter
Aug 25
New
Sep 2
First Quarter
Sep 8
Full
Sep 15
Last Quarter

Hourly Weather History & Observations

Time (CDT) Temp. Heat Index Dew Point Humidity Pressure Visibility Wind Dir Wind Speed Gust Speed Precip Events Conditions
12:53 AM 75.9 °F - 72.0 °F 87% 29.98 in 10.0 mi Calm Calm - N/A   Clear
1:53 AM 73.4 °F - 71.6 °F 94% 29.98 in 6.0 mi Calm Calm - N/A   Clear
2:53 AM 73.9 °F - 71.1 °F 91% 29.96 in 8.0 mi Calm Calm - N/A   Clear
3:13 AM 73.0 °F - 70.0 °F 90% 29.97 in 2.5 mi SE 3.5 mph - N/A   Mostly Cloudy
3:18 AM 73.0 °F - 70.0 °F 90% 29.97 in 4.0 mi SSE 3.5 mph - N/A   Scattered Clouds
3:53 AM 73.9 °F - 71.1 °F 91% 29.96 in 4.0 mi Calm Calm - N/A   Scattered Clouds
4:39 AM 73.0 °F - 71.1 °F 93% 29.96 in 2.5 mi Calm Calm - N/A   Mostly Cloudy
4:46 AM 73.9 °F - 72.0 °F 93% 29.96 in 3.0 mi Calm Calm - N/A   Mostly Cloudy
4:53 AM 73.9 °F - 71.1 °F 91% 29.95 in 6.0 mi Calm Calm - N/A   Mostly Cloudy
5:34 AM 75.9 °F - 73.0 °F 91% 29.97 in 1.8 mi Calm Calm - N/A   Overcast
5:53 AM 75.9 °F - 73.9 °F 94% 29.96 in 2.5 mi Calm Calm - N/A   Overcast
6:14 AM 77.0 °F - 73.9 °F 90% 29.98 in 1.2 mi Calm Calm - N/A   Overcast
6:53 AM 77.0 °F - 75.0 °F 94% 29.98 in 0.5 mi Calm Calm - N/A Fog Fog
7:12 AM 77.0 °F - 75.0 °F 94% 29.99 in 1.0 mi SSW 3.5 mph - N/A   Mist
7:36 AM 78.1 °F - 75.0 °F 90% 30.00 in 3.0 mi SW 6.9 mph - N/A   Overcast
7:53 AM 78.1 °F - 75.9 °F 93% 30.00 in 5.0 mi SW 4.6 mph - N/A   Overcast
8:50 AM 80.6 °F 87.1 °F 77.0 °F 89% 30.01 in 10.0 mi SW 9.2 mph - N/A   Overcast
8:53 AM 80.1 °F 85.8 °F 77.0 °F 90% 30.00 in 10.0 mi WSW 8.1 mph - N/A   Overcast
9:30 AM 84.0 °F 93.7 °F 77.0 °F 79% 30.00 in 10.0 mi SW 10.4 mph - N/A   Mostly Cloudy
9:49 AM 87.8 °F 102.5 °F 78.8 °F 75% 30.00 in 10.0 mi SW 9.2 mph - N/A   Mostly Cloudy
9:53 AM 87.1 °F 99.8 °F 78.1 °F 74% 30.00 in 10.0 mi SW 10.4 mph - N/A   Mostly Cloudy
10:33 AM 88.0 °F 98.5 °F 75.9 °F 67% 30.01 in 10.0 mi West 12.7 mph - N/A   Mostly Cloudy
10:53 AM 90.0 °F 100.2 °F 75.0 °F 61% 30.01 in 10.0 mi WSW 11.5 mph - N/A   Scattered Clouds
11:53 AM 90.0 °F 99.0 °F 73.9 °F 59% 30.01 in 10.0 mi NW 6.9 mph - N/A   Scattered Clouds
12:53 PM 90.0 °F 99.0 °F 73.9 °F 59% 29.98 in 10.0 mi West 8.1 mph - N/A   Clear
1:53 PM 91.9 °F 101.3 °F 73.9 °F 55% 29.95 in 10.0 mi Variable 5.8 mph - N/A   Mostly Cloudy
2:53 PM 93.9 °F 103.4 °F 73.0 °F 51% 29.93 in 10.0 mi WNW 6.9 mph - N/A   Partly Cloudy
3:53 PM 95.0 °F 105.2 °F 73.9 °F 50% 29.91 in 10.0 mi SSW 6.9 mph - N/A   Clear
4:53 PM 93.9 °F 103.4 °F 73.0 °F 51% 29.90 in 10.0 mi SW 3.5 mph - N/A   Mostly Cloudy
5:53 PM 89.1 °F 98.0 °F 73.9 °F 61% 29.90 in 10.0 mi SSW 4.6 mph - N/A   Scattered Clouds
6:53 PM 86.0 °F 93.0 °F 73.0 °F 65% 29.91 in 10.0 mi SSW 4.6 mph - N/A   Clear
7:53 PM 82.9 °F 89.4 °F 73.9 °F 74% 29.91 in 10.0 mi WSW 5.8 mph - N/A   Scattered Clouds
8:53 PM 79.0 °F - 73.9 °F 84% 29.92 in 10.0 mi SW 4.6 mph - N/A   Clear
9:53 PM 80.1 °F 85.1 °F 75.0 °F 85% 29.94 in 10.0 mi Calm Calm - N/A   Clear
11:53 PM 75.9 °F - 73.0 °F 91% 29.94 in 10.0 mi Calm Calm - N/A   Clear